Terminal Aerodrome Forecast
Issued by NWS Key West, FL

Home | Current Version | Previous Version | Text Only | Print | Product List | Glossary On
Versions: 1 2 3 4 5 6 7 8 9 10 11 12 13 14 15 16 17 18 19 20 21 22 23 24 25 26 27 28 29 30 31 32 33 34 35 36 37 38 39 40 41 42 43 44 45 46 47 48 49 50
000
FTUS42 KKEY 071229 AAB
TAFEYW
TAF AMD
KEYW 071229Z 0712/0812 35018G30KT P6SM VCSH BKN020
     FM071800 34017G23KT P6SM FEW022 BKN070
     FM072000 34014G19KT P6SM FEW022=

USA.gov is the U.S. government's official web portal to all federal, state and local government web resources and services.